Vorticity
2 2 4 3 6 4 4 1 7 2 4 1 3 1 3 4 4 7 12 14 13 12 14 12 11 8 7 -2 3 3 5 5 6 6 6 8 11 -3 14 15 6 19 23 8
14 17 17 13 10 10 5 5 10 9 11 13 6 13 10 9 8 12 11 13 15 16 19 21 33 16 1 -1 2 2 4 7 8 10 2 20 -5 21 19 18 17 7 19 28
14 15 12 10 16 15 13 18 19 18 20 21 15 16 14 15 12 8 7 12 13 12 9 18 27 23 9 3 2 4 2 3 6 17 12 5 1 -4 -2 -3 21 18 9 9
6 4 5 8 9 5 9 9 6 7 7 7 19 24 39 17 6 4 3 4 16 9 7 8 17 22 21 11 10 5 3 0 0 4 1 13 13 13 9 -2 7 12 -1 22
2 0 2 1 1 3 7 3 2 -0 2 2 4 2 14 28 28 14 6 8 8 11 8 8 11 17 18 10 5 3 4 4 0 1 2 5 -0 16 11 8 -10 -6 8 -12
9 4 2 4 5 -5 10 8 2 0 3 2 1 3 4 4 6 19 24 19 18 10 8 8 7 13 12 10 4 1 1 6 4 2 2 2 2 4 6 12 12 7 -1 2
8 5 11 7 7 8 5 6 6 1 2 2 2 6 2 4 1 3 7 6 10 19 29 19 8 6 8 9 10 8 10 6 3 3 2 3 5 4 3 2 7 12 7 9
4 8 5 5 5 13 17 21 11 5 5 2 3 1 1 4 1 1 2 3 0 2 2 3 22 25 15 10 10 9 8 7 8 9 9 10 11 10 8 5 3 3 7 8
7 8 7 11 7 7 8 15 19 12 10 2 9 6 5 5 3 1 2 4 4 3 4 4 5 5 -3 -4 2 18 30 30 27 23 22 21 20 22 21 15 11 4 4 5
11 20 7 15 12 17 10 5 -2 1 9 13 15 5 5 5 2 5 4 3 1 3 4 1 3 1 3 2 3 3 4 0 -2 4 4 4 -0 -3 -1 2 15 26 24 14
18 16 13 9 12 1 4 14 5 1 -3 -1 7 24 17 12 7 7 4 2 1 4 4 3 4 3 1 3 0 2 3 3 4 2 3 3 9 3 4 2 5 3 -3 0
7 3 1 0 2 2 8 17 18 19 21 14 6 -1 6 12 12 14 9 3 5 2 -0 3 0 3 4 4 4 1 -0 4 3 2 2 2 1 2 6 10 8 4 2 5
4 6 7 10 6 6 7 2 -5 -4 4 14 9 16 4 5 3 -3 11 14 13 13 18 13 16 11 9 5 6 4 4 5 3 2 3 2 3 3 2 3 4 5 7 10
6 5 4 7 9 8 8 6 8 8 8 8 7 6 7 8 13 18 25 17 13 13 9 11 14 11 8 11 10 4 3 3 3 3 6 3 0 5 7 4 2 5 3 -1
6 7 6 3 5 6 7 5 5 5 8 7 6 8 8 7 8 5 5 5 8 11 12 12 13 10 11 8 12 10 6 10 4 6 4 4 -1 -7 -3 1 2 -1 -2 -2
10 7 4 6 5 7 9 10 11 7 4 9 10 9 9 10 14 14 11 12 3 0 -0 -1 4 11 15 14 11 16 11 9 14 10 15 11 13 14 7 10 16 22 21 19
6 12 14 12 8 9 11 10 10 11 11 12 11 11 11 8 6 7 8 11 14 13 10 9 9 9 10 16 21 18 18 19 19 17 14 14 12 14 16 13 15 11 16 7
8 12 20 21 21 16 16 13 11 9 10 6 8 10 11 6 7 6 6 6 6 5 7 12 9 7 3 3 9 13 14 11 11 9 12 14 14 13 15 15 17 11 13 14
33 23 19 6 12 7 7 10 20 17 8 6 26 8 8 20 23 16 10 6 6 10 17 8 17 22 15 14 12 11 15 15 15 15 18 17 17 19 16 16 19 17 12 12
15 0 -32 29 26 21 32 6 -4 -8 9 5 19 17 21 9 18 18 13 21 3 15 13 -1 -13 -8 14 24 16 15 24 24 21 18 18 24 20 23 20 22 18 18 16 12
58 52 9 36 -18 16 16 4 -14 3 13 11 -18 33 9 6 1 -21 21 18 -24 -7 4 -5 5 6 19 12 14 27 17 15 14 14 17 15 14 13 10 7 7 9 12 15
21 -8 -0 -29 8 11 -5 -9 9 22 -1 4 2 5 29 5 12 26 9 3 35 32 31 32 25 22 10 21 5 20 20 15 10 7 9 9 9 7 9 10 9 10 10 14
21 12 27 25 5 -7 11 16 15 21 17 23 26 26 26 26 23 23 27 26 21 20 18 21 22 15 30 23 18 11 18 11 8 5 10 12 9 11 11 11 12 13 14 15
1 8 19 21 18 16 16 12 15 16 21 22 20 17 14 14 13 15 13 13 18 20 22 25 18 25 4 1 18 19 12 9 10 11 11 9 14 16 14 13 15 19 17 12
10 9 9 12 12 11 14 13 13 19 15 15 16 12 9 9 10 15 15 15 11 13 18 22 27 6 4 17 7 8 11 10 9 11 13 12 9 11 10 9 8 7 8 11
11 10 12 12 15 14 15 18 19 17 14 13 12 10 11 13 16 18 19 18 14 15 28 21 31 -1 -15 15 20 12 9 10 8 14 11 9 18 10 7 7 9 12 14 16
10 13 17 23 23 20 19 18 13 13 11 10 12 13 15 21 28 26 22 22 15 25 23 37 9 13 -6 24 17 10 9 4 15 9 14 24 9 8 9 15 15 17 22 23
Height
5735 5733 5730 5728 5725 5722 5720 5717 5715 5714 5712 5710 5708 5706 5703 5701 5698 5696 5693 5689 5686 5682 5678 5674 5672 5671 5669 5666 5662 5657 5653 5647 5641 5635 5628 5621 5612 5604 5595 5585 5575 5564 5553 5544
5732 5730 5727 5725 5722 5720 5717 5714 5712 5709 5707 5703 5701 5699 5697 5695 5693 5690 5688 5684 5680 5676 5672 5668 5665 5664 5663 5661 5658 5654 5650 5644 5638 5632 5626 5619 5611 5602 5594 5584 5575 5563 5553 5543
5731 5728 5726 5724 5720 5717 5714 5711 5709 5706 5702 5698 5693 5691 5689 5688 5686 5685 5683 5680 5676 5673 5669 5664 5660 5659 5658 5656 5655 5652 5647 5643 5637 5631 5624 5618 5611 5603 5594 5585 5576 5567 5555 5546
5732 5727 5725 5722 5719 5716 5713 5710 5707 5704 5700 5696 5692 5686 5682 5678 5677 5677 5675 5673 5670 5667 5663 5659 5656 5653 5652 5652 5650 5648 5644 5640 5635 5629 5622 5616 5609 5602 5595 5587 5578 5570 5561 5551
5728 5727 5724 5719 5717 5715 5712 5708 5704 5701 5698 5694 5691 5687 5683 5679 5676 5673 5670 5667 5664 5660 5657 5654 5651 5648 5647 5646 5644 5641 5639 5635 5630 5625 5620 5613 5607 5600 5594 5587 5580 5573 5564 5556
5722 5720 5718 5715 5713 5712 5709 5706 5702 5698 5695 5692 5688 5685 5681 5677 5674 5670 5667 5665 5661 5655 5650 5648 5645 5643 5641 5639 5637 5634 5631 5628 5624 5620 5615 5610 5605 5599 5592 5586 5579 5573 5567 5560
5714 5711 5716 5707 5706 5705 5704 5704 5697 5693 5690 5687 5684 5681 5678 5673 5670 5668 5665 5660 5656 5652 5649 5644 5638 5635 5633 5631 5630 5628 5624 5621 5617 5613 5609 5605 5600 5596 5590 5584 5579 5573 5567 5562
5706 5707 5704 5700 5699 5697 5694 5692 5688 5686 5684 5681 5678 5675 5673 5670 5666 5662 5657 5655 5652 5648 5644 5641 5637 5633 5628 5625 5623 5620 5617 5613 5610 5606 5602 5598 5594 5589 5585 5580 5576 5571 5566 5562
5698 5701 5693 5690 5689 5685 5681 5681 5678 5676 5674 5672 5672 5669 5666 5662 5659 5656 5652 5648 5643 5640 5637 5633 5631 5629 5626 5621 5615 5611 5609 5605 5601 5598 5595 5591 5587 5583 5579 5575 5571 5567 5563 5558
5687 5695 5683 5683 5681 5678 5673 5671 5669 5666 5663 5660 5659 5658 5656 5654 5650 5646 5643 5640 5637 5633 5629 5625 5622 5618 5617 5614 5611 5607 5601 5598 5595 5592 5588 5585 5582 5578 5574 5570 5566 5562 5559 5555
5683 5684 5674 5675 5671 5669 5667 5664 5661 5657 5653 5650 5647 5646 5642 5640 5640 5637 5633 5629 5627 5623 5620 5616 5612 5608 5604 5601 5600 5597 5594 5591 5586 5581 5579 5576 5574 5572 5568 5565 5562 5558 5554 5550
5671 5669 5666 5670 5661 5657 5654 5651 5648 5647 5644 5640 5636 5634 5629 5627 5623 5622 5621 5617 5613 5610 5607 5603 5602 5598 5594 5591 5588 5585 5583 5580 5576 5574 5570 5566 5564 5562 5559 5557 5554 5551 5548 5545
5657 5655 5654 5652 5650 5646 5644 5640 5637 5634 5630 5628 5624 5620 5618 5615 5609 5607 5604 5601 5598 5594 5591 5588 5585 5584 5580 5579 5576 5572 5569 5566 5565 5561 5558 5556 5553 5550 5548 5546 5543 5541 5539 5537
5643 5642 5643 5636 5636 5632 5630 5628 5624 5621 5617 5614 5610 5606 5603 5600 5596 5591 5588 5585 5582 5578 5574 5571 5569 5565 5564 5562 5559 5557 5554 5552 5549 5546 5545 5542 5539 5537 5534 5531 5530 5528 5526 5524
5628 5624 5625 5625 5620 5617 5615 5613 5610 5606 5602 5598 5594 5590 5587 5584 5581 5577 5574 5571 5567 5562 5559 5557 5553 5547 5545 5544 5540 5537 5535 5533 5531 5529 5527 5525 5523 5521 5519 5517 5515 5514 5512 5509
5615 5608 5606 5605 5602 5598 5595 5593 5591 5589 5585 5582 5579 5574 5571 5567 5564 5560 5556 5553 5551 5547 5544 5541 5536 5532 5528 5524 5521 5518 5514 5511 5511 5510 5508 5506 5505 5504 5501 5500 5499 5496 5495 5493
5595 5591 5588 5586 5584 5582 5579 5576 5573 5569 5565 5563 5560 5557 5555 5551 5546 5541 5537 5536 5533 5528 5525 5522 5518 5513 5510 5508 5504 5500 5498 5495 5494 5492 5489 5488 5486 5485 5484 5482 5480 5478 5477 5476
5574 5571 5570 5567 5565 5564 5560 5556 5553 5550 5547 5543 5539 5536 5533 5529 5525 5522 5518 5516 5513 5508 5503 5499 5495 5492 5490 5488 5486 5482 5478 5476 5475 5474 5471 5470 5468 5466 5465 5464 5462 5461 5459 5457
5556 5554 5552 5549 5547 5546 5543 5539 5534 5532 5527 5523 5521 5516 5512 5508 5504 5500 5496 5495 5492 5488 5481 5478 5474 5471 5470 5466 5464 5461 5460 5458 5457 5455 5454 5452 5451 5448 5446 5445 5445 5443 5440 5439
5539 5538 5535 5532 5529 5525 5521 5517 5511 5511 5508 5501 5498 5495 5493 5489 5483 5479 5475 5475 5471 5465 5461 5458 5456 5456 5453 5450 5447 5445 5443 5441 5440 5438 5437 5436 5435 5432 5429 5429 5428 5427 5425 5420
5520 5517 5516 5514 5512 5508 5502 5495 5491 5491 5486 5481 5477 5475 5472 5468 5463 5458 5456 5454 5455 5445 5442 5440 5436 5433 5434 5433 5430 5429 5426 5425 5423 5422 5421 5420 5417 5417 5413 5412 5412 5410 5407 5405
5501 5499 5497 5494 5491 5490 5486 5480 5475 5470 5465 5460 5456 5453 5450 5447 5442 5437 5436 5433 5429 5420 5417 5416 5415 5415 5413 5414 5413 5412 5410 5408 5406 5406 5405 5405 5403 5399 5396 5395 5395 5391 5389 5387
5486 5482 5478 5474 5469 5466 5465 5459 5454 5446 5444 5439 5435 5430 5426 5423 5419 5413 5413 5409 5403 5398 5395 5395 5395 5395 5396 5396 5396 5396 5394 5393 5390 5388 5388 5388 5386 5383 5379 5377 5377 5375 5373 5370
5462 5460 5455 5452 5447 5443 5440 5437 5432 5427 5423 5420 5416 5410 5404 5400 5399 5394 5389 5387 5384 5381 5378 5378 5377 5377 5378 5380 5379 5378 5376 5375 5374 5371 5370 5371 5369 5368 5365 5361 5359 5358 5356 5354
5441 5438 5434 5431 5427 5424 5420 5416 5412 5408 5403 5401 5397 5392 5386 5380 5375 5376 5372 5369 5365 5362 5361 5361 5362 5362 5363 5364 5362 5362 5360 5359 5358 5356 5355 5356 5353 5351 5347 5346 5345 5342 5340 5338
5422 5419 5417 5413 5409 5404 5399 5395 5391 5390 5384 5382 5379 5373 5368 5363 5359 5354 5352 5350 5348 5346 5345 5344 5346 5347 5348 5347 5347 5346 5346 5345 5344 5342 5341 5340 5337 5334 5332 5330 5329 5327 5325 5323
5403 5400 5396 5393 5390 5384 5381 5377 5373 5374 5368 5362 5358 5355 5349 5347 5343 5338 5334 5332 5331 5330 5329 5329 5331 5333 5334 5334 5334 5333 5332 5332 5330 5329 5327 5325 5322 5319 5317 5316 5315 5312 5311 5309